Dewpoint
56 60 64 62 60 60 60 58 58 57 57 57 56 56 56 56 56 56 56 56 56 56 56 56 55 55 55 55 55 56 55 54 56 59 61 67 67 67 69 69 69 69 70
57 58 64 61 61 60 60 58 57 57 57 56 56 56 55 55 55 55 55 55 55 55 56 55 55 54 54 55 55 54 54 55 56 57 59 65 65 65 67 68 69 69 70
57 60 60 61 60 60 58 57 57 56 56 55 55 54 54 55 54 54 54 54 54 54 55 54 54 54 54 54 54 52 55 56 55 55 57 58 60 63 65 66 67 68 69
58 58 58 61 61 59 57 56 56 56 55 54 54 53 53 54 52 53 53 53 53 54 53 52 53 54 54 53 51 52 54 53 54 54 47 57 58 62 61 63 65 67 68
57 58 59 62 60 58 57 56 56 55 53 53 53 52 52 53 51 51 51 50 51 52 51 51 54 52 51 49 48 50 51 51 51 45 55 55 56 59 60 60 62 64 66
56 58 61 62 61 58 57 56 55 55 52 52 52 53 52 52 51 47 49 49 49 49 50 53 52 50 47 46 46 47 48 50 48 39 55 56 55 59 58 57 58 61 63
56 58 59 61 60 57 56 56 55 54 51 52 51 50 50 49 51 46 46 47 47 48 51 51 50 48 46 44 43 44 46 48 43 39 51 53 55 58 57 56 55 56 60
57 58 58 59 58 57 56 55 54 51 50 51 50 50 48 49 46 45 48 48 47 44 49 48 48 46 46 43 43 43 43 47 43 40 50 52 55 56 54 53 53 54 55
56 57 57 55 55 57 56 54 53 50 51 51 50 47 45 45 45 44 48 45 42 43 42 44 46 45 45 42 43 43 43 45 43 41 48 50 54 53 51 50 51 52 53
55 56 55 54 53 53 53 54 52 50 51 48 47 46 45 44 43 44 47 44 39 41 41 44 45 44 43 42 44 44 45 45 38 43 49 50 52 50 47 46 47 49 51
54 54 54 52 52 52 52 52 51 50 50 48 46 46 44 41 42 43 47 42 38 37 38 44 45 43 42 43 45 45 46 39 36 46 48 52 52 51 52 50 45 46 48
53 53 52 52 51 51 51 50 48 47 48 47 46 43 43 43 42 43 44 42 39 39 40 44 46 45 43 40 40 44 41 36 36 44 46 49 49 49 49 51 45 44 46
52 51 51 51 51 48 50 49 49 48 48 48 47 45 46 44 41 40 39 40 39 43 40 43 44 43 40 37 37 36 36 36 37 40 42 44 43 44 47 49 48 47 45
50 49 50 50 49 49 49 48 48 47 48 49 50 48 47 44 44 42 41 41 40 40 40 42 42 42 40 36 36 36 35 36 36 40 41 41 38 36 40 45 50 49 46
48 47 46 46 46 49 49 49 49 48 49 49 49 48 47 46 45 43 42 41 41 40 39 38 36 37 37 37 37 36 36 36 35 35 40 41 38 35 35 39 46 51 49
46 44 46 45 45 46 46 47 45 45 47 46 48 49 47 46 45 45 44 43 43 41 40 39 38 38 36 36 36 35 34 35 35 36 37 40 43 40 38 38 41 47 51
45 44 45 46 47 46 45 46 44 45 43 45 45 47 48 46 45 44 44 44 43 42 41 39 37 37 37 36 36 35 34 34 36 35 35 35 38 43 42 41 39 42 48
43 43 44 46 47 48 46 48 45 46 46 43 44 46 46 47 46 46 45 45 44 43 42 40 40 38 38 38 37 36 35 35 34 35 37 35 34 37 42 43 42 40 42
42 42 43 46 47 46 46 46 46 46 46 45 46 46 46 49 49 46 45 45 43 42 40 40 40 39 37 37 36 35 35 34 33 34 34 34 34 36 39 43 44 43 41
47 46 45 46 45 45 46 47 48 47 47 48 47 46 45 46 47 47 45 43 42 40 39 39 40 39 38 37 36 33 35 35 35 34 33 34 35 34 33 34 41 42 43
48 48 48 47 48 47 47 47 47 47 47 48 47 47 47 46 45 43 43 43 42 40 39 38 39 40 38 38 35 34 34 35 34 35 34 34 34 34 36 36 40 40 40
46 47 48 49 49 49 48 47 46 46 45 44 44 43 44 45 46 45 43 41 39 38 38 38 38 37 38 38 35 34 31 32 34 35 35 34 33 34 35 36 37 38 40
47 47 48 47 47 47 49 49 46 44 44 42 42 42 40 39 40 41 42 40 39 38 37 36 38 38 36 36 37 34 29 28 32 35 36 35 34 34 36 38 37 38 39
44 45 45 44 42 44 45 45 42 42 41 41 39 37 36 37 37 38 38 40 40 40 38 37 37 37 37 36 35 37 34 35 31 33 35 32 34 36 36 39 40 38 37
39 41 40 38 35 35 35 34 35 34 35 36 36 35 36 35 35 34 35 37 38 40 38 37 37 36 37 36 35 34 34 33 34 31 30 33 35 36 36 38 40 40 38
35 36 35 34 33 33 33 33 33 33 34 33 33 33 34 34 34 35 36 36 36 37 39 38 37 36 37 37 36 36 34 33 32 31 31 31 31 33 37 39 39 41 40
Lifted_Index
3 3 4 4 5 5 5 6 6 7 7 8 9 9 9 9 9 9 9 9 9 9 9 10 10 11 11 11 11 11 11 8 6 4 3 2 2 1 1 -0 -1 -1 -1
3 3 4 4 4 5 5 6 7 7 8 9 9 9 9 9 10 10 9 9 9 9 10 10 11 11 11 11 11 12 11 9 6 4 3 3 2 2 1 0 -0 -1 -1
3 3 4 4 4 5 6 7 7 8 9 9 9 10 10 10 10 10 10 10 10 10 10 10 11 11 11 11 12 12 10 8 5 4 4 4 4 3 2 1 1 -0 -1
3 3 4 4 4 5 6 7 8 8 9 9 10 10 10 10 11 11 11 11 10 10 11 11 11 11 12 12 13 11 9 7 6 5 4 4 4 4 3 2 2 1 0
4 4 4 4 4 5 6 7 8 8 9 10 10 10 10 10 11 11 12 11 11 11 11 11 11 12 13 14 14 12 9 8 7 6 5 5 5 5 4 3 2 2 1
4 4 3 3 4 5 6 7 7 8 9 10 10 10 10 10 11 12 12 12 12 12 11 11 12 13 14 15 15 14 11 10 10 9 7 6 6 6 6 4 3 2 2
4 4 3 4 4 5 6 6 7 8 9 9 10 10 10 11 11 12 12 12 12 12 11 11 12 13 15 15 16 15 14 12 12 11 9 7 7 7 7 6 4 3 3
4 4 4 4 5 5 6 6 7 9 9 9 10 10 11 11 12 12 12 12 12 12 12 12 13 14 14 15 16 16 15 14 13 12 9 8 8 8 9 8 6 4 4
3 4 4 4 5 5 6 6 8 9 9 9 10 11 11 12 12 12 12 12 13 13 13 13 13 13 14 15 15 15 15 14 13 12 10 8 8 9 10 10 8 6 5
3 3 4 4 5 5 6 6 7 8 9 9 10 11 12 12 12 12 11 12 13 14 13 13 13 13 14 15 14 14 14 14 14 12 10 9 9 10 11 12 11 9 8
3 4 4 5 5 5 5 6 7 8 8 9 10 10 11 11 11 11 11 12 13 13 13 13 12 13 14 14 14 14 14 14 14 13 11 10 9 10 10 11 12 12 11
3 4 4 5 5 5 6 6 7 8 8 8 8 9 9 10 10 11 11 11 12 12 12 12 11 12 13 14 14 14 14 15 15 13 12 11 11 11 10 11 12 12 12
3 3 4 4 5 5 6 6 7 7 6 6 6 7 7 8 9 9 10 10 10 10 10 10 10 11 12 13 13 14 14 15 15 14 13 13 13 13 12 11 11 11 12
2 3 3 4 5 5 5 5 5 5 5 5 5 5 6 6 7 8 8 8 9 9 10 10 10 10 11 11 12 12 13 14 14 14 14 14 14 15 14 12 11 10 11
2 3 3 4 5 5 5 4 4 4 4 4 4 4 5 5 6 7 7 8 8 9 9 10 10 10 11 11 11 12 12 13 13 14 14 14 14 15 15 14 12 11 10
2 3 3 4 5 5 4 4 4 4 3 3 3 4 4 5 6 6 7 7 8 8 9 10 10 10 11 11 11 12 12 12 13 13 13 13 13 14 15 15 14 12 11
3 4 4 4 4 4 4 3 3 3 3 3 4 4 4 5 5 5 6 6 7 8 8 9 10 10 10 11 11 11 12 12 12 13 13 13 13 13 14 14 14 13 12
4 4 4 4 4 3 3 3 3 3 3 4 4 4 4 5 5 5 5 6 6 7 8 8 9 9 10 10 11 11 11 12 12 12 13 13 13 13 13 13 14 14 14
3 3 3 3 3 3 3 3 3 3 3 3 4 4 4 4 5 5 5 6 6 6 7 8 8 9 9 10 10 11 11 11 12 12 12 12 13 13 14 13 13 13 14
3 3 3 3 3 3 3 3 3 3 3 3 3 3 4 4 5 5 6 6 6 6 7 8 8 8 8 9 10 10 11 11 11 12 12 12 13 13 13 13 13 13 14
3 3 3 3 2 2 2 2 2 2 3 3 3 3 4 5 5 6 6 6 7 7 7 8 8 8 8 8 9 9 10 10 11 11 12 12 12 12 13 13 13 13 13
3 3 3 2 2 2 2 2 2 3 3 3 4 4 5 6 6 7 7 7 7 8 8 9 9 9 9 9 9 9 9 10 10 10 11 11 12 12 12 12 13 13 13
3 3 3 2 2 2 3 3 3 4 4 5 5 6 7 7 8 9 9 9 9 9 10 10 10 10 10 10 10 10 10 10 10 10 10 10 11 12 12 12 12 12 12
3 3 3 3 3 4 5 5 6 6 7 7 8 8 9 9 10 10 10 10 10 11 11 11 11 11 11 10 10 10 10 10 10 10 9 10 11 11 12 11 11 11 11
4 4 4 5 5 6 7 8 9 9 10 10 10 11 11 11 11 11 12 12 12 12 12 12 12 12 12 11 11 11 11 11 10 10 9 9 10 11 11 11 11 11 11
4 4 5 6 7 7 8 9 10 11 11 11 12 12 12 12 12 12 12 13 13 13 12 12 12 12 12 12 11 11 11 11 11 10 10 9 9 10 10 11 11 10 10